DW7447 Weather Reports


Display with metric or nautical units.
time (UTC)temp
F
wind
direction
speed
MPH
gust
MPH
rain 1hr
in
rain 24hr
in
rain mn
in
humidity
%
barometer
mb
20260906231444 69 200 10.0 17.0 0.00 0.08 0.00 69 1011.8
20260906230443 69 185 9.0 18.0 0.00 0.08 0.00 69 1011.8
20260906225404 69 207 9.0 15.0 0.00 0.08 0.08 69 1012.0
20260906224903 69 195 8.0 19.0 0.00 0.08 0.08 69 1012.0
20260906223904 69 162 8.0 19.0 0.00 0.08 0.08 69 1012.0
20260906223403 69 197 11.0 19.0 0.00 0.08 0.08 69 1012.0
20260906222355 69 203 10.0 20.0 0.00 0.08 0.08 70 1012.0
20260906221850 69 207 8.0 22.0 0.00 0.08 0.08 69 1012.0
20260906221350 69 165 11.0 22.0 0.00 0.08 0.08 71 1012.1
20260906220853 69 157 10.0 19.0 0.00 0.08 0.08 71 1012.1
20260906220343 69 175 12.0 19.0 0.00 0.08 0.08 71 1012.1
20260906215834 69 180 10.0 18.0 0.00 0.08 0.08 71 1012.2
20260906215334 69 172 7.0 18.0 0.00 0.08 0.08 71 1012.1
20260906214810 69 203 10.0 18.0 0.00 0.08 0.08 71 1012.0
20260906214305 68 172 9.0 16.0 0.00 0.08 0.08 71 1012.1
20260906213803 69 165 7.0 15.0 0.00 0.08 0.08 71 1012.1
20260906212806 68 192 12.0 21.0 0.00 0.08 0.08 71 1012.2
20260906212306 68 192 14.0 21.0 0.00 0.08 0.08 72 1012.3
20260906211804 68 183 11.0 19.0 0.00 0.08 0.08 72 1012.3
20260906211258 68 158 8.0 21.0 0.00 0.08 0.08 72 1012.3
20260906210759 68 161 13.0 21.0 0.00 0.08 0.08 72 1012.3
20260906210252 68 169 8.0 23.0 0.00 0.08 0.08 72 1012.4
20260906205751 68 197 8.0 23.0 0.00 0.08 0.08 72 1012.4
20260906204733 68 169 14.0 26.0 0.00 0.08 0.08 72 1012.6
20260906204231 68 202 8.0 26.0 0.00 0.08 0.08 73 1012.6
20260906203732 68 182 10.0 23.0 0.00 0.08 0.08 72 1012.6
20260906203206 68 230 9.0 24.0 0.00 0.08 0.08 73 1012.8
20260906202703 68 178 13.0 22.0 0.00 0.08 0.08 73 1012.9
20260906202202 68 224 10.0 18.0 0.00 0.08 0.08 73 1012.8
20260906201652 68 202 10.0 18.0 0.00 0.08 0.08 73 1013.0
20260906201147 68 172 7.0 16.0 0.00 0.08 0.08 72 1013.0
20260906200633 68 204 8.0 21.0 0.00 0.08 0.08 73 1013.0
20260906195606 68 168 9.0 21.0 0.00 0.08 0.08 72 1013.0
20260906195104 68 189 11.0 19.0 0.00 0.08 0.08 72 1012.9
20260906194557 68 137 10.0 22.0 0.00 0.08 0.08 72 1013.0
20260906194050 68 207 10.0 25.0 0.00 0.08 0.08 72 1013.1
20260906193552 68 193 10.0 25.0 0.00 0.08 0.08 73 1013.0
20260906192551 68 180 11.0 21.0 0.00 0.08 0.08 72 1013.1
20260906191049 68 206 15.0 26.0 0.00 0.08 0.08 72 1013.4
20260906190552 68 183 11.0 20.0 0.00 0.08 0.08 72 1013.3
20260906190052 68 169 12.0 22.0 0.00 0.08 0.08 71 1013.5
20260906185552 68 216 14.0 22.0 0.00 0.08 0.08 72 1013.3
20260906184551 68 204 13.0 24.0 0.00 0.08 0.08 71 1013.4
20260906184051 68 171 14.0 24.0 0.00 0.08 0.08 71 1013.4
20260906183551 68 169 17.0 23.0 0.00 0.08 0.08 71 1013.2
20260906183051 68 197 12.0 31.0 0.00 0.08 0.08 71 1013.4
20260906182551 68 203 14.0 31.0 0.00 0.08 0.08 71 1013.3
20260906182052 68 189 8.0 16.0 0.00 0.08 0.08 71 1013.3
20260906181553 68 216 10.0 16.0 0.00 0.08 0.08 70 1013.2
20260906181051 68 183 9.0 17.0 0.00 0.08 0.08 70 1013.3
20260906180551 68 213 7.0 17.0 0.00 0.08 0.08 70 1013.2
20260906180052 68 206 6.0 18.0 0.00 0.08 0.08 70 1013.3
20260906175551 68 185 7.0 18.0 0.00 0.08 0.08 70 1013.5
20260906175052 68 224 7.0 15.0 0.00 0.08 0.08 70 1013.5
20260906174551 68 180 5.0 14.0 0.00 0.08 0.08 70 1013.4
20260906174053 68 204 6.0 14.0 0.00 0.08 0.08 70 1013.6
20260906173554 68 172 9.0 14.0 0.00 0.08 0.08 70 1013.6
20260906173051 68 192 6.0 18.0 0.00 0.08 0.08 69 1013.6
20260906172051 68 175 10.0 20.0 0.00 0.08 0.08 68 1013.8
20260906171051 68 204 13.0 22.0 0.00 0.08 0.08 68 1014.0
20260906170552 69 176 10.0 16.0 0.00 0.08 0.08 69 1013.9
20260906170054 69 220 8.0 22.0 0.00 0.08 0.08 69 1014.0
20260906165553 69 182 13.0 22.0 0.00 0.08 0.08 70 1014.0
20260906165051 69 227 11.0 23.0 0.00 0.08 0.08 70 1014.0
20260906164550 69 183 10.0 23.0 0.00 0.08 0.08 70 1013.9
20260906164051 69 183 12.0 23.0 0.00 0.08 0.08 69 1014.0
20260906163050 70 186 9.0 25.0 0.00 0.08 0.08 69 1014.0
20260906162551 71 195 14.0 25.0 0.00 0.08 0.08 68 1014.1
20260906162051 71 212 10.0 19.0 0.00 0.08 0.08 69 1014.0
20260906161551 71 183 11.0 20.0 0.00 0.08 0.08 69 1013.9
20260906161055 71 188 11.0 20.0 0.00 0.08 0.08 69 1014.1
20260906160551 71 138 6.0 19.0 0.00 0.08 0.08 70 1014.3
20260906160052 71 178 5.0 19.0 0.00 0.08 0.08 70 1014.4
20260906155551 71 195 13.0 19.0 0.00 0.08 0.08 70 1014.6
20260906155051 71 159 9.0 28.0 0.00 0.08 0.08 71 1014.6
20260906154553 71 148 11.0 29.0 0.00 0.08 0.08 71 1014.8
20260906154053 71 182 17.0 29.0 0.00 0.08 0.08 71 1014.8
20260906153551 70 217 15.0 24.0 0.00 0.08 0.08 70 1014.8
20260906153050 71 192 12.0 24.0 0.00 0.08 0.08 70 1014.9
20260906152550 71 227 9.0 26.0 0.00 0.08 0.08 70 1015.0
20260906152051 71 195 14.0 26.0 0.00 0.08 0.08 70 1015.0
20260906151539 71 219 9.0 21.0 0.00 0.08 0.08 71 1015.3
20260906150523 71 185 13.0 25.0 0.00 0.08 0.08 71 1015.2
20260906150022 70 196 10.0 26.0 0.00 0.08 0.08 73 1015.4
20260906145509 69 223 13.0 23.0 0.00 0.08 0.08 71 1015.4
20260906145005 69 189 12.0 26.0 0.00 0.08 0.08 71 1015.4
20260906144505 70 202 13.0 26.0 0.00 0.08 0.08 71 1015.4
20260906143502 68 180 17.0 22.0 0.00 0.08 0.08 75 1015.6
20260906143004 67 175 10.0 21.0 0.00 0.08 0.08 75 1015.5
20260906142504 67 193 11.0 23.0 0.00 0.08 0.08 75 1015.6
20260906142003 67 155 17.0 23.0 0.00 0.08 0.08 76 1015.8
20260906141504 67 182 10.0 24.0 0.00 0.08 0.08 75 1015.9
20260906141005 68 209 14.0 25.0 0.00 0.08 0.08 75 1015.9
20260906140505 68 182 17.0 25.0 0.00 0.08 0.08 76 1015.8
20260906135504 67 188 16.0 28.0 0.00 0.08 0.08 80 1016.0
20260906134955 67 195 17.0 28.0 0.00 0.08 0.08 80 1016.0
20260906134452 67 217 15.0 24.0 0.00 0.08 0.08 80 1016.2
20260906133933 66 178 14.0 22.0 0.00 0.08 0.08 84 1016.3
20260906133429 65 202 12.0 24.0 0.00 0.08 0.08 84 1016.6
20260906132909 64 185 15.0 24.0 0.01 0.08 0.08 84 1016.4
20260906132404 63 233 15.0 23.0 0.01 0.08 0.08 89 1016.6
20260906131905 62 178 13.0 20.0 0.01 0.08 0.08 89 1016.8
20260906130859 62 209 9.0 19.0 0.02 0.08 0.08 90 1016.9
20260906130351 61 207 12.0 21.0 0.02 0.08 0.08 90 1016.9
20260906125852 60 230 12.0 21.0 0.03 0.08 0.08 91 1016.7
20260906125352 60 210 13.0 21.0 0.04 0.08 0.08 92 1016.3
20260906124850 60 180 9.0 20.0 0.04 0.08 0.08 92 1016.4
20260906123832 60 173 14.0 21.0 0.04 0.08 0.08 91 1016.7
20260906123337 60 227 13.0 18.0 0.04 0.08 0.07 91 1016.8
20260906122809 60 212 11.0 21.0 0.03 0.07 0.07 91 1017.1
20260906122307 59 209 11.0 21.0 0.03 0.07 0.07 91 1017.2
20260906121257 59 254 11.0 22.0 0.02 0.06 0.06 90 1017.4
20260906120750 59 203 9.0 20.0 0.02 0.06 0.06 89 1017.4
20260906120249 59 183 9.0 20.0 0.02 0.06 0.05 89 1017.5
20260906115749 59 213 10.0 21.0 0.02 0.05 0.05 88 1017.5
20260906114733 59 188 12.0 22.0 0.02 0.04 0.04 88 1017.4
20260906114235 59 169 13.0 21.0 0.03 0.04 0.04 88 1017.6
20260906113232 59 179 14.0 22.0 0.04 0.04 0.04 87 1017.9
20260906112732 59 193 13.0 21.0 0.04 0.04 0.04 88 1017.9
20260906112231 59 221 13.0 22.0 0.04 0.04 0.04 88 1018.0
20260906111730 59 195 13.0 22.0 0.04 0.04 0.04 89 1018.1
20260906111231 59 227 9.0 17.0 0.04 0.04 0.04 89 1018.2
20260906110719 59 221 11.0 18.0 0.04 0.04 0.04 88 1018.2
20260906105706 59 202 12.0 23.0 0.03 0.03 0.03 86 1018.2
20260906105207 60 226 9.0 15.0 0.02 0.02 0.02 84 1018.3
20260906104703 60 228 8.0 24.0 0.02 0.02 0.02 82 1018.2
20260906104203 61 219 11.0 24.0 0.01 0.01 0.01 79 1018.3
20260906103650 62 298 12.0 22.0 0.00 0.00 0.00 78 1018.3
20260906103133 63 217 12.0 22.0 0.00 0.00 0.00 75 1018.3
20260906102633 63 264 10.0 30.0 0.00 0.00 0.00 71 1018.4
20260906102132 64 217 14.0 30.0 0.00 0.00 0.00 71 1018.4
20260906101622 64 189 8.0 21.0 0.00 0.00 0.00 71 1018.5
20260906101111 64 243 11.0 22.0 0.00 0.00 0.00 71 1018.5
20260906100610 64 202 11.0 24.0 0.00 0.00 0.00 71 1018.5
20260906100105 64 216 13.0 24.0 0.00 0.00 0.00 72 1018.4
20260906095606 63 221 13.0 23.0 0.00 0.00 0.00 72 1018.4
20260906094610 64 247 11.0 23.0 0.00 0.00 0.00 70 1018.5
20260906094106 64 216 10.0 25.0 0.00 0.00 0.00 67 1018.5
20260906093606 64 219 11.0 25.0 0.00 0.00 0.00 67 1018.6
20260906093104 65 175 9.0 19.0 0.00 0.00 0.00 68 1018.5
20260906092048 65 233 8.0 13.0 0.00 0.00 0.00 68 1018.5
20260906091548 65 166 6.0 15.0 0.00 0.00 0.00 68 1018.4
20260906091052 65 196 8.0 15.0 0.00 0.00 0.00 68 1018.5
20260906090549 65 207 9.0 15.0 0.00 0.00 0.00 66 1018.5
20260906090050 65 209 8.0 13.0 0.00 0.00 0.00 66 1018.5
20260906085550 65 228 8.0 14.0 0.00 0.00 0.00 66 1018.7
20260906085050 65 203 9.0 14.0 0.00 0.00 0.00 66 1018.7
20260906084550 65 214 6.0 17.0 0.00 0.00 0.00 66 1018.6
20260906083551 65 202 3.0 12.0 0.00 0.00 0.00 68 1018.7
20260906082053 62 231 3.0 11.0 0.00 0.00 0.00 72 1018.9
20260906081550 62 224 6.0 14.0 0.00 0.00 0.00 73 1018.8
20260906081052 62 183 7.0 15.0 0.00 0.00 0.00 73 1018.8
20260906080550 62 196 8.0 15.0 0.00 0.00 0.00 74 1018.9
20260906080053 62 159 6.0 14.0 0.00 0.00 0.00 74 1018.9
20260906075051 61 207 8.0 15.0 0.00 0.00 0.00 77 1019.1
20260906074549 60 247 5.0 9.0 0.00 0.00 0.00 77 1019.2
20260906074051 60 276 2.0 14.0 0.00 0.00 0.00 77 1019.3
20260906073548 60 159 5.0 14.0 0.00 0.00 0.00 77 1019.4
20260906073050 59 192 7.0 13.0 0.00 0.00 0.00 77 1019.4
20260906072051 59 199 8.0 14.0 0.00 0.00 0.00 77 1019.5
20260906071550 59 175 7.0 15.0 0.00 0.00 0.00 78 1019.5
20260906070552 59 221 10.0 16.0 0.00 0.00 0.00 79 1019.6
20260906070051 59 240 8.0 16.0 0.00 0.00 0.00 79 1019.5
20260906065551 58 195 9.0 16.0 0.00 0.00 0.00 79 1019.6
20260906064550 58 180 10.0 16.0 0.00 0.00 0.00 79 1019.7
20260906064050 58 144 9.0 16.0 0.00 0.00 0.00 79 1019.8
20260906063550 58 188 7.0 15.0 0.00 0.00 0.00 79 1019.9
20260906062556 58 180 6.0 18.0 0.00 0.00 0.00 79 1020.0
20260906062053 58 182 7.0 18.0 0.00 0.00 0.00 79 1020.0
20260906061550 58 185 12.0 18.0 0.00 0.00 0.00 80 1020.0
20260906061050 57 165 11.0 18.0 0.00 0.00 0.00 80 1020.1
20260906055551 57 179 9.0 17.0 0.00 0.00 0.00 80 1020.0
20260906055051 57 185 9.0 15.0 0.00 0.00 0.00 81 1020.0
20260906054551 56 148 10.0 16.0 0.00 0.00 0.00 81 1020.2
20260906053550 56 221 5.0 12.0 0.00 0.00 0.00 82 1020.2
20260906053050 56 171 7.0 11.0 0.00 0.00 0.00 82 1020.4
20260906052552 56 172 5.0 11.0 0.00 0.00 0.00 82 1020.4
20260906052050 56 189 5.0 15.0 0.00 0.00 0.00 83 1020.5
20260906051550 56 179 7.0 17.0 0.00 0.00 0.00 83 1020.6
20260906051051 55 157 3.0 17.0 0.00 0.00 0.00 83 1020.6
20260906050550 55 192 4.0 14.0 0.00 0.00 0.00 83 1020.6
20260906050051 55 164 3.0 8.0 0.00 0.00 0.00 83 1020.6
20260906045550 55 182 3.0 9.0 0.00 0.00 0.00 83 1020.7
20260906045048 55 193 3.0 9.0 0.00 0.00 0.00 83 1020.8
20260906044050 55 125 5.0 12.0 0.00 0.00 0.00 84 1020.9
20260906043550 55 204 5.0 8.0 0.00 0.00 0.00 84 1020.9
20260906043050 55 185 3.0 7.0 0.00 0.00 0.00 85 1021.0
20260906042551 55 123 3.0 7.0 0.00 0.00 0.00 85 1021.0
20260906042051 55 185 3.0 8.0 0.00 0.00 0.00 85 1021.1
20260906041550 55 197 4.0 8.0 0.00 0.00 0.00 85 1021.2
20260906041051 54 235 3.0 11.0 0.00 0.00 0.00 86 1021.2
20260906040533 54 178 5.0 14.0 0.00 0.00 0.00 86 1021.2
20260906040034 54 258 6.0 14.0 0.00 0.00 0.00 86 1021.3
20260906035033 54 224 6.0 11.0 0.00 0.00 0.00 86 1021.3
20260906034531 54 278 3.0 14.0 0.00 0.00 0.00 86 1021.3
20260906034032 54 272 2.0 14.0 0.00 0.00 0.00 86 1021.2
20260906033531 54 262 2.0 8.0 0.00 0.00 0.00 85 1021.2
20260906033030 54 200 4.0 8.0 0.00 0.00 0.00 84 1021.3
20260906032537 54 196 2.0 8.0 0.00 0.00 0.00 84 1021.5
20260906032028 54 275 1.0 8.0 0.00 0.00 0.00 84 1021.5
20260906031532 55 221 0.0 7.0 0.00 0.00 0.00 84 1021.5
20260906031007 55 252 0.0 6.0 0.00 0.00 0.00 84 1021.5
20260906030512 55 204 3.0 11.0 0.00 0.00 0.00 84 1021.7
20260906030013 55 252 4.0 15.0 0.00 0.00 0.00 84 1021.7
20260906024953 55 189 6.0 13.0 0.00 0.00 0.00 85 1021.9
20260906024448 55 220 6.0 11.0 0.00 0.00 0.00 84 1022.0
20260906023949 55 196 6.0 11.0 0.00 0.00 0.00 84 1022.2
20260906023448 55 221 4.0 8.0 0.00 0.00 0.00 84 1022.2
20260906022936 55 244 4.0 9.0 0.00 0.00 0.00 84 1022.2
20260906022422 55 206 5.0 9.0 0.00 0.00 0.00 84 1022.2
20260906021908 55 207 2.0 9.0 0.00 0.00 0.00 84 1022.3
20260906021404 54 183 4.0 12.0 0.00 0.00 0.00 85 1022.2
20260906020903 54 216 5.0 12.0 0.00 0.00 0.00 85 1022.1
20260906020404 54 200 6.0 12.0 0.00 0.00 0.00 85 1022.3
20260906015352 54 188 4.0 12.0 0.00 0.00 0.00 85 1022.3
20260906014348 54 197 6.0 11.0 0.00 0.00 0.00 84 1022.6
20260906013850 54 176 5.0 11.0 0.00 0.00 0.00 84 1022.6
20260906012844 54 179 4.0 11.0 0.00 0.00 0.00 83 1022.8
20260906012334 54 207 4.0 11.0 0.00 0.00 0.00 83 1022.8
20260906011834 54 183 4.0 11.0 0.00 0.00 0.00 83 1023.0
20260906011315 54 203 4.0 9.0 0.00 0.00 0.00 83 1023.1
20260906010807 54 190 6.0 9.0 0.00 0.00 0.00 83 1023.1
20260906010304 54 186 6.0 11.0 0.00 0.00 0.00 83 1023.2
20260906005806 54 180 5.0 14.0 0.00 0.00 0.00 83 1023.2
20260906005306 54 221 7.0 14.0 0.00 0.00 0.00 84 1023.1
20260906004803 53 190 7.0 14.0 0.00 0.00 0.00 86 1023.3
20260906004252 53 179 6.0 12.0 0.00 0.00 0.00 86 1023.4
20260906003748 53 190 6.0 15.0 0.00 0.00 0.00 87 1023.4
20260906003248 52 200 7.0 15.0 0.00 0.00 0.00 88 1023.3
20260906002733 52 196 4.0 8.0 0.00 0.00 0.00 87 1023.4
20260906001732 51 176 3.0 7.0 0.00 0.00 0.00 87 1023.4
20260906001230 51 195 2.0 6.0 0.00 0.00 0.00 87 1023.4
20260906000732 51 224 2.0 5.0 0.00 0.00 0.00 87 1023.5
20260905235202 51 224 1.0 4.0 0.00 0.00 0.00 86 1023.6
20260905234704 52 224 1.0 4.0 0.00 0.00 0.00 85 1023.5
20260905234159 52 224 2.0 4.0 0.00 0.00 0.00 85 1023.5
20260905233648 52 248 2.0 4.0 0.00 0.00 0.00 85 1023.5
20260905233149 52 248 0.0 2.0 0.00 0.00 0.00 84 1023.6
20260905232649 52 248 0.0 2.0 0.00 0.00 0.00 84 1023.7
20260905232151 53 248 0.0 2.0 0.00 0.00 0.00 83 1023.8